Regional Weather Roundup
Issued by NWS

Home | Current Version | Previous Version | Text Only | Print | Product List | Glossary Off
Versions: 1 2 3 4 5 6 7 8 9 10 11 12 13 14 15 16 17 18 19 20 21 22 23 24 25 26 27 28 29 30 31 32 33 34 35 36 37 38 39 40 41 42 43 44 45 46 47 48 49 50

000
ASUS43 KLOT 181309
RWRIL

ILLINOIS REGIONAL WEATHER ROUNDUP
NATIONAL WEATHER SERVICE CHICAGO/ROMEOVILLE IL
800 AM CDT WED OCT 18 2017

NOTE: "FAIR" INDICATES FEW OR NO CLOUDS BELOW 12,000 FEET WITH NO
SIGNIFICANT WEATHER AND/OR OBSTRUCTIONS TO VISIBILITY.

* THESE STATIONS ARE NOT UNDER NWS QUALITY CONTROL. THEY ALSO MAY NOT
  REPORT WEATHER SUCH AS PRECIPITATION OR FOG.

ILZ001-002-007-009-015-016-024-181400-
NORTHWEST ILLINOIS

CITY           SKY/WX    TMP DP  RH WIND       PRES   REMARKS
MOLINE         CLEAR     51  40  65 S9        30.08S
STERLING*      CLEAR     50  42  74 VRB5        N/A
SAVANNA*       CLEAR     47  41  81 S10       30.09S
$$

ILZ003-004-008-010-011-017-018-181400-
NORTH CENTRAL ILLINOIS

CITY           SKY/WX    TMP DP  RH WIND       PRES   REMARKS
ROCKFORD       CLEAR     46  41  82 S7        30.13S
FREEPORT*      CLEAR     47  40  76 S10       30.11S
ROCHELLE*      CLEAR     44  41  89 S6        30.14R
DE KALB*       CLEAR     43  41  91 S9        30.15S
PERU*          CLEAR     46  40  80 S8        30.15S
$$

ILZ005-006-012>014-019>023-181400-
NORTHEAST ILLINOIS

CITY           SKY/WX    TMP DP  RH WIND       PRES   REMARKS
CHICAGO-OHARE  CLEAR     50  42  74 S8        30.15S
CHICAGO-MIDWAY CLEAR     51  42  71 S10       30.17S
AURORA         CLEAR     45  42  89 S5        30.16S
LANSING*       PTCLDY    47  43  84 S6        30.19S
JOLIET*        CLEAR     48  44  85 S3        30.18R
WAUKEGAN       CLEAR     50  42  74 SW14      30.13S
DUPAGE AIRPORT CLEAR     46  43  89 S7        30.15S
KANKAKEE*      CLEAR     47  40  77 S7        30.21S
WHEELING       CLEAR     51  43  74 S8        30.16S
MORRIS*        CLEAR     45  41  87 S5        30.17R
ROMEOVILLE*    CLEAR     46  42  86 S7        30.17S
NORTHERLY ISL    N/A     52  40  63 S12         N/A
$$

LMZ740>746-181400-
SOUTHERN LAKE MICHIGAN

STATION/POSITION SKY/WX   TEMP    WIND        PRES    VSBY  WAVE
                          AIR SEA DIR/SP/G                  HT/PER
                          (F)     (DEG/KT/KT) (MB)    (MI)  (FT/S)
SOUTHERN BUOY              59 61  230/ 19/ 21 1020.5R         4/ 6
WILMETTE HARBOR            53 57  210/ 16/ 21   N/A           3/ 3
HARRISON CRIB              54     210/ 20/ 22   N/A
BURNHAM HARBOR             52     200/  8/ 11   N/A
CALUMET HARBOR             50     170/  6/  8 1021.2S
BURNS HARBOR               49     180/ 11/ 16 1022.7S
MICHIGAN CITY              50     160/ 14/ 17   N/A
MICHIGAN CITY 6N           52 57  200/ 14/ 17   N/A           2/ 2
ST. JOSEPH                 55 58  210/ 14/ 17 1022.9          3/ 4
$$

ILZ025>027-034>036-040-047-049-050-058-095>099-181400-
WEST-CENTRAL ILLINOIS

CITY           SKY/WX    TMP DP  RH WIND       PRES   REMARKS
QUINCY         CLEAR     50  41  71 S9        30.13R
GALESBURG*     CLEAR     46  41  81 S8        30.14R
MACOMB*        CLEAR     47  42  84 S8        30.16R
JACKSONVILLE*  CLEAR     49  41  75 S8        30.17S
PITTSFIELD*    CLEAR     50  42  74 S6        30.17R
$$

ILZ028>032-037-038-041>044-048-051>054-059>061-181400-
CENTRAL ILLINOIS

CITY           SKY/WX    TMP DP  RH WIND       PRES   REMARKS
PONTIAC        CLEAR     46  44  93 S6        30.19S
BLOOMINGTON    CLEAR     46  41  82 S10       30.20R
DECATUR        CLEAR     47  41  80 S8        30.22R
PEORIA         CLEAR     47  42  83 S6        30.16S
LACON*         CLEAR     48  42  79 S5        30.15R
LINCOLN*       CLEAR     46  43  87 S7        30.19S
SPRINGFIELD    CLEAR     51  42  71 S8        30.19S
TAYLORVILLE    CLEAR     48  42  79 S7        30.21S
$$

ILZ033-039-045-046-055>057-062-063-181400-
EAST-CENTRAL ILLINOIS

CITY           SKY/WX    TMP DP  RH WIND       PRES   REMARKS
CHAMPAIGN      CLEAR     49  41  74 S9        30.23R
DANVILLE*      CLEAR     43  40  89 CALM      30.22R
RANTOUL*       CLEAR     45  42  89 S5        30.22S
MATTOON        CLEAR     47  43  86 S6        30.23R
PARIS*         CLEAR     43  42  97 SE6       30.26R
$$

ILZ079-100>102-181400-
SOUTHWEST ILLINOIS

CITY           SKY/WX    TMP DP  RH WIND       PRES   REMARKS
ALTON          CLEAR     41  41 100 S7        30.21S
BELLEVILLE     CLEAR     41  39  93 CALM      30.25R
CAHOKIA*       CLEAR     47  41  80 S5        30.21S
SPARTA*        PTCLDY    44  42  95 CALM      30.25R
$$

ILZ064>066-069>071-074>076-080>082-084>086-088>090-092>094-181400-
SOUTH-CENTRAL ILLINOIS

CITY           SKY/WX    TMP DP  RH WIND       PRES   REMARKS
CARBONDALE     CLEAR     40  40 100 CALM      30.25R
CAIRO*         CLEAR     42  42 100 CALM      30.26R
EFFINGHAM*     CLEAR     42  42 100 E3        30.26S
MARION         PTCLDY    45  45 100 SE6       30.26R
MT. VERNON     CLEAR     40  40 100 CALM      30.26R
CENTRALIA*     CLEAR     49  44  84 S7        30.24R
SALEM*         CLEAR     48  43  82 S3        30.24R
METROPOLIS*    CLEAR     43  43  99 CALM      30.27S FOG
$$

ILZ067-068-072-073-078-083-087-091-181400-
SOUTHEAST ILLINOIS

CITY           SKY/WX    TMP DP  RH WIND       PRES   REMARKS
LAWRENCEVILLE  CLEAR     45  44  97 CALM      30.28R
FLORA*         CLEAR     42  41  96 CALM      30.26S
FAIRFIELD*     CLEAR     43  43 100 CALM      30.25S
HARRISBURG*    CLEAR     40  40 100 CALM      30.27R
ROBINSON*      CLEAR     40  40 100 CALM      30.28R
CARMI*         CLEAR     40  40 100 CALM      30.27R
$$

ABBREVIATIONS USED IN REMARKS
   TC - TEMPERATURE IN CELSIUS
  WCI - WIND CHILL INDEX
   HX - HEAT INDEX
  VSB - VISIBILITY
$$





USA.gov is the U.S. government's official web portal to all federal, state and local government web resources and services.